This demonstration page uses our WeatherBlox Daily Observations layout. Learn more.

Left ArrowRight Arrow

Hourly Observations for June 6, 2015

Temp ( °F °C ) Dew Point ( °F °C ) Humidity (%) Winds ( mph kmh ) Pressure ( in mb ) Visibility ( mi km ) Precip ( " mm )
12:54 am 00:54 Clear 70 21.1 65 18.3 84 84 SE 6 9 29.99 1016 10 16.0934 N/A
1:54 am 01:54 Clear 70 21.1 65 18.3 84 84 S 3 6 29.99 1016 10 16.0934 N/A
2:54 am 02:54 Partly Cloudy 69 20.6 65 18.3 87 87 S 5 7 30.01 1016 10 16.0934 N/A
3:54 am 03:54 Mostly Cloudy with Light Rain 69 20.6 66 18.9 90 90 SW 15 24 30.03 1017 8 12.87472 0.03 0.762
4:54 am 04:54 Mostly Cloudy with Nearby Thunderstorms 68 20 65 18.3 90 90 SE 7 11 30 1016 9 14.48406 0.07 1.778
5:05 am 05:05 Partly Cloudy with Light Thunderstorms 68 20 64 18 88 88 ESE 8 13 30 1016 8 12.87472 N/A
5:20 am 05:20 Mostly Cloudy with Light Rain 68 20 65 18.3 90 90 ESE 7 11 30 1016 7 11.26538 0.04 1.016
5:54 am 05:54 Cloudy with Rain 67 19.4 65 18.3 93 93 N N/A 30.02 1017 3 4.82802 0.14 3.556
6:54 am 06:54 Mostly Cloudy with Light Rain 67 19.4 65 18.3 93 93 WSW 6 9 29.98 1015 10 16.0934 0.08 2.032
7:54 am 07:54 Mostly Sunny 67 19.4 66 18.9 97 97 S 7 11 29.99 1016 9 14.48406 N/A
8:54 am 08:54 Mostly Cloudy 68 20 65 18.3 90 90 SSE 13 20 29.98 1015 10 16.0934 N/A
9:54 am 09:54 Cloudy 69 20.6 65 18.3 87 87 SSE 10 17 29.99 1016 10 16.0934 N/A
10:54 am 10:54 Cloudy 71 21.7 65 18.3 81 81 E 7 11 30 1016 10 16.0934 N/A
11:54 am 11:54 Partly Cloudy 75 23.9 67 19.4 76 76 ESE 9 15 29.97 1015 10 16.0934 N/A
12:54 pm 12:54 Mostly Sunny 79 26.1 69 20.6 72 72 SE 14 22 29.94 1014 10 16.0934 N/A
1:54 pm 13:54 Mostly Sunny 83 28.3 69 20.6 63 63 SSE 21 33 29.89 1012 10 16.0934 N/A
2:54 pm 14:54 Mostly Sunny 85 29.4 70 21.1 61 61 SSE 20 31 29.86 1011 10 16.0934 N/A
3:54 pm 15:54 Mostly Sunny 86 30 71 21.7 61 61 S 21 33 29.82 1010 10 16.0934 N/A
4:54 pm 16:54 Sunny 86 30 70 21.1 59 59 S 23 37 29.8 1009 10 16.0934 N/A
5:54 pm 17:54 Sunny 85 29.4 71 21.7 63 63 S 21 33 29.79 1009 10 16.0934 N/A
6:54 pm 18:54 Sunny 83 28.3 71 21.7 67 67 S 16 26 29.78 1008 10 16.0934 N/A
7:54 pm 19:54 Sunny 81 27.2 68 20 65 65 SSE 21 33 29.71 1006 10 16.0934 N/A
8:54 pm 20:54 Sunny 80 26.7 68 20 67 67 S 18 30 29.74 1007 10 16.0934 N/A
9:54 pm 21:54 Clear 78 25.6 68 20 71 71 S 15 24 29.73 1007 10 16.0934 N/A
10:54 pm 22:54 Clear 77 25 69 20.6 77 77 S 16 26 29.72 1007 10 16.0934 N/A
11:54 pm 23:54 Clear 77 25 69 20.6 77 77 S 15 24 29.73 1007 10 16.0934 N/A

Powered by AerisWeather